Погода в Доркинге

Великобритания     51°13′43″N   0°20′20″E
темп.,
°C
ветер,
м/с
пор.,
м/с
влажн.,
%
обл.,
%
осадки,
мм/ч
давл.,
гПа
погр.,
м
7 мая, пт
пт701:00+3зсз413775 0.0 1012501
04:00+2зсз4118651 0.0 1013404
07:00+3зсз38815 0.0 1015271
10:00+9сз45500 0.0 10171082
13:00+12з4643100 0.0 10172314
16:00+10юз566686 0.8 10171176
19:00+9юз566794 1.1 1016661
22:00+5ю237599 0.0 101756
8 мая, сб
сб801:00+4юв3666100 0.0 1014127
04:00+6юв51274100 0.1 1011377
07:00+8ююв71497100 2.5 1007585
10:00+10ю91798100 4.4 10051007
13:00+13ююз101792100 4.4 10041054
16:00+17ююз10177382 0.1 10031355
19:00+15ююз916720 0.1 10021142
22:00+13ююз816730 0.0 1002866
9 мая, вс
вс901:00+12ююз616831 0.0 1000569
04:00+9ю313913 0.0 999329
07:00+11ю312845 0.0 998372
10:00+16ююз61170100 0.0 997793
13:00+18ююз7106253 0.0 9971209
16:00+17ююз576087 0.0 996943
19:00+15зюз3578100 0.0 995422
22:00+11ююз298495 0.1 997448
10 мая, пн
пн1001:00+10ю3987100 0.1 997351
04:00+10ююз61292100 0.1 998750
07:00+10ююз81282100 0.1 999967
10:00+12ююз9127637 0.3 10021267
13:00+14юз912585 0.6 10031702
16:00+14ююз711535 0.0 10041554
19:00+13ю510715 0.0 10051138
22:00+9юв412835 0.0 1006305
11 мая, вт
вт1101:00+7ююв36902 0.0 1006125
04:00+7юв3493100 0.0 100699
07:00+9ююв389080 0.0 1007357
10:00+14ююз466429 0.0 10081012
13:00+15ююз5654100 0.0 10081162
16:00+15ююз5656100 0.0 10091129
19:00+13юз3569100 0.0 1010642
22:00+8ююз2383100 0.0 101163